Gillette, WY

10:41 PM MDT on May 26, 2018 (GMT -0600)
Gillette-Campbell County

Weather History for KGCC - October, 2010

Change the Weather History Date:

Sunday, October 24, 2010

  Actual Average Record
Temperature  
Mean Temperature 48 °F 42 °F  
Max Temperature 62 °F 56 °F 80 °F (1948)
Min Temperature 33 °F 29 °F 13 °F (1942)
Degree Days  
Heating Degree Days 17 23  
Month to date heating degree days 261 447  
Since 1 July heating degree days 539 742  
Cooling Degree Days 0 0  
Month to date cooling degree days 6 0  
Year to date cooling degree days 429 500  
Moisture  
Dew Point 35 °F    
Average Humidity 60    
Maximum Humidity 93    
Minimum Humidity 27    
Precipitation  
Precipitation 0.00 in 0.03 in 1.15 in (1973)
Month to date precipitation 0.39 1.09  
Year to date precipitation 12.33 12.76  
Sea Level Pressure  
Sea Level Pressure 29.50 in    
Wind  
Wind Speed 15 mph (SSW)    
Max Wind Speed 32 mph    
Max Gust Speed 39 mph    
Visibility 10 miles    
Events      
T = Trace of Precipitation, MM = Missing Value Source: NWS Daily Summary

Daily Weather History Graph

Daily Weather History Graph

Search for Another Location

Airport or City:

Astronomy

Oct. 24, 2010 Rise Set
Actual Time 7:28 AM MDT 6:03 PM MDT
Civil Twilight 6:59 AM MDT 6:32 PM MDT
Nautical Twilight 6:25 AM MDT 7:06 PM MDT
Astronomical Twilight 5:51 AM MDT 7:40 PM MDT
Moon 6:39 PM MDT (10/24) 9:20 AM MDT (10/24)
Length of Visible Light 11h 33m
Length of Day
10h 34m
Full, 97% of the Moon is Illuminated
Oct 24
Full
Oct 30
Last Quarter
Nov 5
New
Nov 13
First Quarter
Nov 21
Full

Hourly Weather History & Observations

Time (MDT) Temp. Windchill Dew Point Humidity Pressure Visibility Wind Dir Wind Speed Gust Speed Precip Events Conditions
12:53 AM 41.0 °F 37.1 °F 37.9 °F 89% 29.75 in 10.0 mi South 5.8 mph - N/A   Scattered Clouds
1:53 AM 41.0 °F - 39.0 °F 93% 29.74 in 10.0 mi Calm Calm - N/A   Clear
2:53 AM 41.0 °F 35.8 °F 39.0 °F 93% 29.72 in 10.0 mi South 8.1 mph - N/A   Clear
3:53 AM 43.0 °F - 39.0 °F 86% 29.70 in 10.0 mi Calm Calm - N/A   Clear
4:53 AM 36.0 °F - 34.0 °F 93% 29.72 in 10.0 mi Calm Calm - N/A   Clear
5:53 AM 37.9 °F 33.5 °F 35.1 °F 89% 29.71 in 10.0 mi SSE 5.8 mph - N/A   Clear
6:53 AM 37.9 °F 35.5 °F 35.1 °F 89% 29.71 in 10.0 mi SE 3.5 mph - N/A   Clear
7:53 AM 35.1 °F - 33.1 °F 92% 29.73 in 10.0 mi Calm Calm - N/A   Clear
8:53 AM 45.0 °F 42.6 °F 39.9 °F 82% 29.69 in 10.0 mi SSE 4.6 mph - N/A   Clear
9:53 AM 50.0 °F - 39.0 °F 66% 29.67 in 10.0 mi South 4.6 mph - N/A   Clear
10:53 AM 55.9 °F - 36.0 °F 47% 29.60 in 10.0 mi SSW 12.7 mph - N/A   Clear
11:53 AM 57.9 °F - 33.1 °F 39% 29.56 in 10.0 mi SW 23.0 mph 28.8 mph N/A   Clear
12:53 PM 59.0 °F - 30.0 °F 33% 29.53 in 10.0 mi SSW 21.9 mph 29.9 mph N/A   Clear
1:53 PM 60.1 °F - 27.0 °F 28% 29.46 in 10.0 mi SSW 25.3 mph 34.5 mph N/A   Clear
2:53 PM 62.1 °F - 28.9 °F 29% 29.41 in 10.0 mi SW 28.8 mph 35.7 mph N/A   Clear
3:53 PM 61.0 °F - 33.1 °F 35% 29.37 in 10.0 mi SSW 24.2 mph 31.1 mph N/A   Clear
4:53 PM 60.1 °F - 33.1 °F 36% 29.37 in 10.0 mi SSW 17.3 mph - N/A   Clear
5:53 PM 59.0 °F - 34.0 °F 39% 29.34 in 10.0 mi SSW 10.4 mph 19.6 mph N/A   Clear
6:53 PM 59.0 °F - 35.1 °F 41% 29.30 in 10.0 mi SW 17.3 mph 25.3 mph N/A   Clear
7:53 PM 59.0 °F - 34.0 °F 39% 29.29 in 10.0 mi SW 18.4 mph 26.5 mph N/A   Clear
8:53 PM 59.0 °F - 35.1 °F 41% 29.22 in 10.0 mi SW 26.5 mph 34.5 mph N/A   Clear
9:53 PM 57.9 °F - 37.0 °F 46% 29.17 in 10.0 mi SSW 17.3 mph 25.3 mph N/A   Scattered Clouds
10:53 PM 57.9 °F - 37.9 °F 47% 29.11 in 10.0 mi SW 27.6 mph 34.5 mph N/A   Clear
11:53 PM 57.0 °F - 39.0 °F 51% 29.08 in 10.0 mi SW 31.1 mph 38.0 mph N/A   Scattered Clouds